| time (UTC) | temp F | wind direction | speed MPH | gust MPH | rain 1hr in | rain 24hr in | rain mn in | humidity % | barometer mb |
| 20260506070652 | 67 | 88 | 0.0 | 3.0 | 0.00 | 0.00 | 0.00 | 73 | 1014.1 |
| 20260506070143 | 67 | 88 | 0.0 | 1.0 | 0.00 | 0.00 | 0.00 | 72 | 1014.0 |
| 20260506062047 | 69 | 88 | 0.0 | 4.0 | 0.00 | 0.00 | 0.00 | 66 | 1014.2 |
| 20260506061748 | 70 | 91 | 0.0 | 4.0 | 0.00 | 0.00 | 0.00 | 64 | 1014.2 |
| 20260506061031 | 70 | 92 | 0.0 | 0.0 | 0.00 | 0.00 | 0.00 | 64 | 1014.3 |
| 20260506060745 | 70 | 92 | 0.0 | 2.0 | 0.00 | 0.00 | 0.00 | 63 | 1014.3 |
| 20260506051344 | 70 | 92 | 0.0 | 0.0 | 0.00 | 0.00 | 0.00 | 62 | 1014.6 |
| 20260506050833 | 70 | 92 | 0.0 | 0.0 | 0.00 | 0.00 | 0.00 | 62 | 1014.7 |
| 20260506050549 | 70 | 92 | 0.0 | 1.0 | 0.00 | 0.00 | 0.00 | 62 | 1014.7 |
| 20260506044806 | 71 | 92 | 0.0 | 1.0 | 0.00 | 0.00 | 0.00 | 60 | 1015.0 |
| 20260506044302 | 71 | 92 | 0.0 | 1.0 | 0.00 | 0.00 | 0.00 | 61 | 1015.0 |
| 20260506044021 | 71 | 92 | 0.0 | 2.0 | 0.00 | 0.00 | 0.00 | 61 | 1014.9 |
| 20260506043243 | 70 | 92 | 0.0 | 2.0 | 0.00 | 0.00 | 0.00 | 62 | 1015.0 |
| 20260506043013 | 70 | 92 | 0.0 | 1.0 | 0.00 | 0.00 | 0.00 | 62 | 1015.0 |
| 20260506042456 | 70 | 92 | 0.0 | 0.0 | 0.00 | 0.00 | 0.00 | 63 | 1015.1 |
| 20260506041727 | 70 | 92 | 0.0 | 1.0 | 0.00 | 0.00 | 0.00 | 62 | 1015.2 |
| 20260506041216 | 70 | 92 | 0.0 | 1.0 | 0.00 | 0.00 | 0.00 | 62 | 1015.2 |
| 20260506040710 | 70 | 92 | 0.0 | 1.0 | 0.00 | 0.00 | 0.00 | 61 | 1015.2 |
| 20260506040423 | 70 | 92 | 0.0 | 1.0 | 0.00 | 0.00 | 0.00 | 61 | 1015.3 |
| 20260506035655 | 70 | 92 | 0.0 | 1.0 | 0.00 | 0.00 | 0.00 | 62 | 1015.4 |
| 20260506035146 | 70 | 92 | 0.0 | 0.0 | 0.00 | 0.00 | 0.00 | 62 | 1015.4 |
| 20260506034638 | 69 | 92 | 0.0 | 0.0 | 0.00 | 0.00 | 0.00 | 64 | 1015.4 |
| 20260506034133 | 69 | 92 | 0.0 | 0.0 | 0.00 | 0.00 | 0.00 | 63 | 1015.6 |
| 20260506033849 | 69 | 92 | 0.0 | 1.0 | 0.00 | 0.00 | 0.00 | 62 | 1015.7 |
| 20260506033116 | 69 | 92 | 0.0 | 1.0 | 0.00 | 0.00 | 0.00 | 62 | 1015.7 |
| 20260506032606 | 69 | 92 | 0.0 | 0.0 | 0.00 | 0.00 | 0.00 | 62 | 1015.7 |
| 20260506032102 | 69 | 92 | 0.0 | 0.0 | 0.00 | 0.00 | 0.00 | 64 | 1015.8 |
| 20260506031546 | 69 | 92 | 0.0 | 0.0 | 0.00 | 0.00 | 0.00 | 64 | 1015.9 |
| 20260506031035 | 69 | 92 | 0.0 | 0.0 | 0.00 | 0.00 | 0.00 | 64 | 1016.0 |
| 20260506030529 | 69 | 92 | 0.0 | 0.0 | 0.00 | 0.00 | 0.00 | 63 | 1016.1 |
| 20260506030024 | 70 | 92 | 0.0 | 1.0 | 0.00 | 0.00 | 0.00 | 63 | 1016.2 |
| 20260506025524 | 70 | 92 | 0.0 | 1.0 | 0.00 | 0.00 | 0.00 | 62 | 1016.3 |
| 20260506025015 | 71 | 92 | 0.0 | 2.0 | 0.00 | 0.00 | 0.00 | 61 | 1016.3 |
| 20260506024509 | 70 | 92 | 0.0 | 2.0 | 0.00 | 0.00 | 0.00 | 63 | 1016.5 |
| 20260506024011 | 70 | 92 | 0.0 | 4.0 | 0.00 | 0.00 | 0.00 | 63 | 1016.6 |
| 20260506023502 | 69 | 92 | 1.0 | 4.0 | 0.00 | 0.00 | 0.00 | 62 | 1016.7 |
| 20260506023004 | 70 | 93 | 1.0 | 4.0 | 0.00 | 0.00 | 0.00 | 61 | 1016.7 |
| 20260506022458 | 71 | 92 | 0.0 | 4.0 | 0.00 | 0.00 | 0.00 | 63 | 1016.8 |
| 20260506021958 | 71 | 92 | 0.0 | 4.0 | 0.00 | 0.00 | 0.00 | 61 | 1016.9 |
| 20260506021453 | 71 | 92 | 0.0 | 2.0 | 0.00 | 0.00 | 0.00 | 62 | 1017.0 |
| 20260506021221 | 69 | 92 | 0.0 | 1.0 | 0.00 | 0.00 | 0.00 | 62 | 1017.3 |
| 20260506020439 | 69 | 92 | 0.0 | 1.0 | 0.00 | 0.00 | 0.00 | 64 | 1017.4 |
| 20260506015924 | 69 | 92 | 0.0 | 0.0 | 0.00 | 0.00 | 0.00 | 62 | 1017.5 |
| 20260506015411 | 69 | 92 | 0.0 | 1.0 | 0.00 | 0.00 | 0.00 | 62 | 1017.6 |
| 20260506015131 | 70 | 90 | 0.0 | 1.0 | 0.00 | 0.00 | 0.00 | 61 | 1017.6 |
| 20260506014605 | 69 | 152 | 0.0 | 1.0 | 0.00 | 0.00 | 0.00 | 61 | 1017.8 |
| 20260506013827 | 69 | 152 | 0.0 | 4.0 | 0.00 | 0.00 | 0.00 | 61 | 1017.8 |
| 20260506013316 | 69 | 155 | 0.0 | 4.0 | 0.00 | 0.00 | 0.00 | 61 | 1017.9 |
| 20260506012756 | 69 | 155 | 0.0 | 2.0 | 0.00 | 0.00 | 0.00 | 62 | 1018.1 |
| 20260506012457 | 70 | 166 | 0.0 | 1.0 | 0.00 | 0.00 | 0.00 | 61 | 1018.1 |
| 20260506011729 | 69 | 166 | 0.0 | 0.0 | 0.00 | 0.00 | 0.00 | 62 | 1018.3 |
| 20260506011217 | 68 | 166 | 0.0 | 0.0 | 0.00 | 0.00 | 0.00 | 62 | 1018.3 |
| 20260506010711 | 68 | 166 | 0.0 | 1.0 | 0.00 | 0.00 | 0.00 | 64 | 1018.4 |
| 20260506010203 | 68 | 166 | 0.0 | 1.0 | 0.00 | 0.00 | 0.00 | 63 | 1018.4 |
| 20260506005653 | 67 | 166 | 0.0 | 2.0 | 0.00 | 0.00 | 0.00 | 66 | 1018.4 |
| 20260506005145 | 67 | 166 | 0.0 | 2.0 | 0.00 | 0.00 | 0.00 | 64 | 1018.4 |
| 20260506004638 | 67 | 166 | 0.0 | 0.0 | 0.00 | 0.00 | 0.00 | 66 | 1018.5 |
| 20260506004132 | 66 | 166 | 0.0 | 0.0 | 0.00 | 0.00 | 0.00 | 65 | 1018.6 |
| 20260506003622 | 65 | 166 | 0.0 | 0.0 | 0.00 | 0.00 | 0.00 | 65 | 1018.8 |
| 20260506003112 | 65 | 166 | 0.0 | 0.0 | 0.00 | 0.00 | 0.00 | 65 | 1018.9 |
| 20260506002823 | 66 | 166 | 0.0 | 0.0 | 0.00 | 0.00 | 0.00 | 65 | 1018.8 |
| 20260506002055 | 66 | 166 | 0.0 | 1.0 | 0.00 | 0.00 | 0.00 | 66 | 1018.9 |
| 20260506001748 | 65 | 166 | 0.0 | 2.0 | 0.00 | 0.00 | 0.00 | 67 | 1018.9 |
| 20260506001631 | 66 | 166 | 0.0 | 1.0 | 0.00 | 0.00 | 0.00 | 66 | 1018.9 |
| 20260506000757 | 65 | 166 | 0.0 | 2.0 | 0.00 | 0.00 | 0.00 | 66 | 1018.9 |
| 20260506000033 | 65 | 166 | 0.0 | 1.0 | 0.00 | 0.00 | 0.00 | 67 | 1019.0 |
| 20260505235530 | 64 | 166 | 0.0 | 2.0 | 0.00 | 0.00 | 0.00 | 69 | 1019.1 |
| 20260505235025 | 64 | 166 | 0.0 | 2.0 | 0.00 | 0.00 | 0.00 | 67 | 1019.1 |
| 20260505234526 | 64 | 166 | 0.0 | 1.0 | 0.00 | 0.00 | 0.00 | 68 | 1019.0 |
| 20260505234019 | 63 | 166 | 0.0 | 2.0 | 0.00 | 0.00 | 0.00 | 70 | 1019.0 |
| 20260505233502 | 63 | 155 | 0.0 | 2.0 | 0.00 | 0.00 | 0.00 | 70 | 1019.1 |
| 20260505233003 | 62 | 177 | 0.0 | 1.0 | 0.00 | 0.00 | 0.00 | 69 | 1019.1 |
| 20260505232455 | 62 | 177 | 0.0 | 1.0 | 0.00 | 0.00 | 0.00 | 72 | 1019.1 |
| 20260505231942 | 62 | 177 | 0.0 | 1.0 | 0.00 | 0.00 | 0.00 | 71 | 1019.2 |
| 20260505231441 | 62 | 177 | 0.0 | 0.0 | 0.00 | 0.00 | 0.00 | 71 | 1019.1 |
| 20260505230941 | 61 | 177 | 0.0 | 0.0 | 0.00 | 0.00 | 0.00 | 73 | 1019.0 |
| 20260505230441 | 61 | 177 | 0.0 | 2.0 | 0.00 | 0.00 | 0.00 | 72 | 1019.1 |
| 20260505225911 | 60 | 177 | 0.0 | 0.0 | 0.00 | 0.00 | 0.00 | 73 | 1019.0 |
| 20260505225405 | 60 | 177 | 0.0 | 0.0 | 0.00 | 0.00 | 0.00 | 74 | 1018.9 |
| 20260505224901 | 60 | 177 | 0.0 | 0.0 | 0.00 | 0.00 | 0.00 | 75 | 1019.0 |
| 20260505224601 | 60 | 177 | 0.0 | 0.0 | 0.00 | 0.00 | 0.00 | 76 | 1019.0 |
| 20260505224109 | 59 | 177 | 0.0 | 0.0 | 0.00 | 0.00 | 0.00 | 77 | 1019.1 |
| 20260505223341 | 58 | 177 | 0.0 | 0.0 | 0.00 | 0.00 | 0.00 | 79 | 1019.1 |
| 20260505222839 | 58 | 177 | 0.0 | 0.0 | 0.00 | 0.00 | 0.00 | 79 | 1019.1 |
| 20260505222333 | 58 | 177 | 0.0 | 0.0 | 0.00 | 0.00 | 0.00 | 80 | 1019.0 |
| 20260505222044 | 58 | 177 | 0.0 | 0.0 | 0.00 | 0.00 | 0.00 | 83 | 1019.1 |
| 20260505221323 | 56 | 177 | 0.0 | 0.0 | 0.00 | 0.00 | 0.00 | 85 | 1019.1 |
| 20260505220824 | 55 | 177 | 0.0 | 0.0 | 0.00 | 0.00 | 0.00 | 85 | 1019.1 |
| 20260505220309 | 55 | 177 | 0.0 | 0.0 | 0.00 | 0.00 | 0.00 | 85 | 1019.1 |
| 20260505215805 | 55 | 177 | 0.0 | 0.0 | 0.00 | 0.00 | 0.00 | 86 | 1019.0 |
| 20260505215241 | 54 | 177 | 0.0 | 0.0 | 0.00 | 0.00 | 0.00 | 86 | 1019.0 |
| 20260505214725 | 53 | 177 | 0.0 | 0.0 | 0.00 | 0.00 | 0.00 | 88 | 1018.9 |
| 20260505214442 | 52 | 177 | 0.0 | 0.0 | 0.00 | 0.00 | 0.00 | 88 | 1018.9 |
| 20260505213725 | 52 | 177 | 0.0 | 0.0 | 0.00 | 0.00 | 0.00 | 89 | 1018.9 |
| 20260505213225 | 51 | 177 | 0.0 | 0.0 | 0.00 | 0.00 | 0.00 | 89 | 1018.9 |
| 20260505212720 | 50 | 177 | 0.0 | 0.0 | 0.00 | 0.00 | 0.00 | 88 | 1019.0 |
| 20260505212203 | 50 | 177 | 0.0 | 0.0 | 0.00 | 0.00 | 0.00 | 88 | 1019.0 |
| 20260505211652 | 50 | 177 | 0.0 | 0.0 | 0.00 | 0.00 | 0.00 | 88 | 1018.8 |
| 20260505211147 | 50 | 177 | 0.0 | 0.0 | 0.00 | 0.00 | 0.00 | 87 | 1018.8 |
| 20260505210631 | 50 | 177 | 0.0 | 0.0 | 0.00 | 0.00 | 0.00 | 87 | 1018.8 |
| 20260505210127 | 50 | 177 | 0.0 | 0.0 | 0.00 | 0.00 | 0.00 | 87 | 1018.7 |
| 20260505205612 | 50 | 177 | 0.0 | 0.0 | 0.00 | 0.00 | 0.00 | 87 | 1018.6 |
| 20260505205105 | 50 | 177 | 0.0 | 0.0 | 0.00 | 0.00 | 0.00 | 87 | 1018.6 |
| 20260505204555 | 50 | 177 | 0.0 | 0.0 | 0.00 | 0.00 | 0.00 | 87 | 1018.6 |
| 20260505204049 | 50 | 177 | 0.0 | 0.0 | 0.00 | 0.00 | 0.00 | 87 | 1018.6 |
| 20260505203540 | 50 | 177 | 0.0 | 0.0 | 0.00 | 0.00 | 0.00 | 86 | 1018.6 |
| 20260505203255 | 50 | 177 | 0.0 | 0.0 | 0.00 | 0.00 | 0.00 | 86 | 1018.7 |
| 20260505202526 | 50 | 177 | 0.0 | 0.0 | 0.00 | 0.00 | 0.00 | 86 | 1018.6 |
| 20260505201941 | 50 | 177 | 0.0 | 0.0 | 0.00 | 0.00 | 0.00 | 86 | 1018.6 |
| 20260505201437 | 50 | 177 | 0.0 | 0.0 | 0.00 | 0.00 | 0.00 | 86 | 1018.5 |
| 20260505200936 | 50 | 177 | 0.0 | 0.0 | 0.00 | 0.00 | 0.00 | 86 | 1018.5 |
| 20260505200416 | 50 | 177 | 0.0 | 0.0 | 0.00 | 0.00 | 0.00 | 86 | 1018.5 |
| 20260505195837 | 51 | 177 | 0.0 | 0.0 | 0.00 | 0.00 | 0.00 | 86 | 1018.4 |
| 20260505195327 | 51 | 177 | 0.0 | 0.0 | 0.00 | 0.00 | 0.00 | 86 | 1018.5 |
| 20260505194806 | 51 | 177 | 0.0 | 0.0 | 0.00 | 0.00 | 0.00 | 86 | 1018.5 |
| 20260505194243 | 51 | 177 | 0.0 | 0.0 | 0.00 | 0.00 | 0.00 | 86 | 1018.5 |
| 20260505193743 | 51 | 177 | 0.0 | 0.0 | 0.00 | 0.00 | 0.00 | 85 | 1018.5 |
| 20260505193230 | 51 | 177 | 0.0 | 0.0 | 0.00 | 0.00 | 0.00 | 85 | 1018.4 |
| 20260505192716 | 51 | 177 | 0.0 | 0.0 | 0.00 | 0.00 | 0.00 | 85 | 1018.4 |
| 20260505192212 | 51 | 177 | 0.0 | 0.0 | 0.00 | 0.00 | 0.00 | 85 | 1018.4 |
| 20260505191635 | 51 | 177 | 0.0 | 0.0 | 0.00 | 0.00 | 0.00 | 85 | 1018.4 |
| 20260505191119 | 51 | 177 | 0.0 | 0.0 | 0.00 | 0.00 | 0.00 | 85 | 1018.3 |
| 20260505190619 | 51 | 177 | 0.0 | 0.0 | 0.00 | 0.00 | 0.00 | 84 | 1018.3 |
| 20260505185551 | 51 | 177 | 0.0 | 0.0 | 0.00 | 0.00 | 0.00 | 84 | 1018.3 |
| 20260505185036 | 51 | 177 | 0.0 | 0.0 | 0.00 | 0.00 | 0.00 | 84 | 1018.3 |
| 20260505184532 | 51 | 177 | 0.0 | 0.0 | 0.00 | 0.00 | 0.00 | 84 | 1018.3 |
| 20260505184023 | 51 | 177 | 0.0 | 0.0 | 0.00 | 0.00 | 0.00 | 84 | 1018.3 |
| 20260505183946 | 51 | 177 | 0.0 | 0.0 | 0.00 | 0.00 | 0.00 | 84 | 1018.3 |
| 20260505183000 | 51 | 177 | 0.0 | 0.0 | 0.00 | 0.00 | 0.00 | 84 | 1018.3 |
| 20260505182709 | 52 | 177 | 0.0 | 0.0 | 0.00 | 0.00 | 0.00 | 84 | 1018.4 |
| 20260505181936 | 52 | 177 | 0.0 | 0.0 | 0.00 | 0.00 | 0.00 | 84 | 1018.3 |
| 20260505181428 | 52 | 177 | 0.0 | 0.0 | 0.00 | 0.00 | 0.00 | 84 | 1018.2 |
| 20260505180917 | 52 | 177 | 0.0 | 0.0 | 0.00 | 0.00 | 0.00 | 84 | 1018.2 |
| 20260505180402 | 52 | 177 | 0.0 | 0.0 | 0.00 | 0.00 | 0.00 | 84 | 1018.2 |
| 20260505175858 | 52 | 177 | 0.0 | 0.0 | 0.00 | 0.00 | 0.00 | 83 | 1018.2 |
| 20260505175347 | 52 | 177 | 0.0 | 0.0 | 0.00 | 0.00 | 0.00 | 83 | 1018.2 |
| 20260505174832 | 52 | 177 | 0.0 | 0.0 | 0.00 | 0.00 | 0.00 | 83 | 1018.2 |
| 20260505174810 | 52 | 177 | 0.0 | 0.0 | 0.00 | 0.00 | 0.00 | 83 | 1018.1 |
| 20260505173818 | 52 | 177 | 0.0 | 0.0 | 0.00 | 0.00 | 0.00 | 83 | 1018.2 |
| 20260505173313 | 52 | 177 | 0.0 | 0.0 | 0.00 | 0.00 | 0.00 | 83 | 1018.2 |
| 20260505172758 | 52 | 177 | 0.0 | 0.0 | 0.00 | 0.00 | 0.00 | 83 | 1018.2 |
| 20260505172249 | 52 | 177 | 0.0 | 0.0 | 0.00 | 0.00 | 0.00 | 83 | 1018.3 |
| 20260505171739 | 52 | 177 | 0.0 | 0.0 | 0.00 | 0.00 | 0.00 | 82 | 1018.3 |
| 20260505171240 | 53 | 177 | 0.0 | 0.0 | 0.00 | 0.00 | 0.00 | 82 | 1018.3 |
| 20260505170737 | 53 | 177 | 0.0 | 0.0 | 0.00 | 0.00 | 0.00 | 83 | 1018.2 |
| 20260505170232 | 53 | 177 | 0.0 | 0.0 | 0.00 | 0.00 | 0.00 | 82 | 1018.2 |
| 20260505165732 | 53 | 177 | 0.0 | 0.0 | 0.00 | 0.00 | 0.00 | 82 | 1018.2 |
| 20260505165228 | 53 | 177 | 0.0 | 0.0 | 0.00 | 0.00 | 0.00 | 82 | 1018.3 |
| 20260505164646 | 53 | 177 | 0.0 | 0.0 | 0.00 | 0.00 | 0.00 | 82 | 1018.3 |
| 20260505164137 | 53 | 177 | 0.0 | 0.0 | 0.00 | 0.00 | 0.00 | 82 | 1018.4 |
| 20260505163626 | 53 | 177 | 0.0 | 0.0 | 0.00 | 0.00 | 0.00 | 81 | 1018.4 |
| 20260505163100 | 53 | 177 | 0.0 | 0.0 | 0.00 | 0.00 | 0.00 | 81 | 1018.4 |
| 20260505162554 | 53 | 177 | 0.0 | 0.0 | 0.00 | 0.00 | 0.00 | 81 | 1018.4 |
| 20260505162028 | 53 | 177 | 0.0 | 0.0 | 0.00 | 0.00 | 0.00 | 81 | 1018.4 |
| 20260505161529 | 53 | 177 | 0.0 | 0.0 | 0.00 | 0.00 | 0.00 | 81 | 1018.4 |
| 20260505161022 | 54 | 177 | 0.0 | 0.0 | 0.00 | 0.00 | 0.00 | 81 | 1018.4 |
| 20260505160513 | 54 | 177 | 0.0 | 0.0 | 0.00 | 0.00 | 0.00 | 81 | 1018.5 |
| 20260505152740 | 54 | 177 | 0.0 | 0.0 | 0.00 | 0.00 | 0.00 | 81 | 1019.0 |
| 20260505152238 | 54 | 177 | 0.0 | 0.0 | 0.00 | 0.00 | 0.00 | 82 | 1018.9 |
| 20260505151736 | 54 | 177 | 0.0 | 0.0 | 0.00 | 0.00 | 0.00 | 82 | 1018.9 |
| 20260505151229 | 54 | 177 | 0.0 | 0.0 | 0.00 | 0.00 | 0.00 | 82 | 1018.9 |
| 20260505150720 | 54 | 177 | 0.0 | 0.0 | 0.00 | 0.00 | 0.00 | 82 | 1019.0 |
| 20260505150234 | 54 | 177 | 0.0 | 0.0 | 0.00 | 0.00 | 0.00 | 83 | 1019.0 |
| 20260505140513 | 54 | 177 | 0.0 | 0.0 | 0.00 | 0.00 | 0.00 | 84 | 1019.0 |
| 20260505130153 | 55 | 177 | 0.0 | 0.0 | 0.00 | 0.00 | 0.00 | 85 | 1019.1 |
| 20260505124635 | 55 | 177 | 0.0 | 0.0 | 0.00 | 0.00 | 0.00 | 85 | 1019.1 |
| 20260505124130 | 55 | 177 | 0.0 | 0.0 | 0.00 | 0.00 | 0.00 | 85 | 1019.0 |
| 20260505123618 | 55 | 177 | 0.0 | 0.0 | 0.00 | 0.00 | 0.00 | 84 | 1019.1 |
| 20260505123114 | 55 | 177 | 0.0 | 0.0 | 0.00 | 0.00 | 0.00 | 84 | 1019.1 |
| 20260505122601 | 55 | 177 | 0.0 | 0.0 | 0.00 | 0.00 | 0.00 | 85 | 1019.1 |
| 20260505122053 | 55 | 177 | 0.0 | 0.0 | 0.00 | 0.00 | 0.00 | 85 | 1019.2 |
| 20260505121545 | 55 | 177 | 0.0 | 0.0 | 0.00 | 0.00 | 0.00 | 85 | 1019.3 |
| 20260505121040 | 55 | 177 | 0.0 | 0.0 | 0.00 | 0.00 | 0.00 | 85 | 1019.2 |
| 20260505120539 | 55 | 177 | 0.0 | 0.0 | 0.00 | 0.00 | 0.00 | 85 | 1019.3 |
| 20260505120032 | 55 | 177 | 0.0 | 0.0 | 0.00 | 0.00 | 0.00 | 85 | 1019.2 |
| 20260505115510 | 55 | 177 | 0.0 | 0.0 | 0.00 | 0.00 | 0.00 | 85 | 1019.2 |
| 20260505115009 | 55 | 177 | 0.0 | 0.0 | 0.00 | 0.00 | 0.00 | 85 | 1019.2 |
| 20260505114505 | 55 | 177 | 0.0 | 0.0 | 0.00 | 0.00 | 0.00 | 85 | 1019.2 |
| 20260505114000 | 55 | 177 | 0.0 | 0.0 | 0.00 | 0.00 | 0.00 | 84 | 1019.2 |
| 20260505113453 | 56 | 177 | 0.0 | 0.0 | 0.00 | 0.00 | 0.00 | 84 | 1019.1 |
| 20260505112946 | 56 | 177 | 0.0 | 0.0 | 0.00 | 0.00 | 0.00 | 83 | 1019.2 |
| 20260505112439 | 56 | 177 | 0.0 | 0.0 | 0.00 | 0.00 | 0.00 | 83 | 1019.1 |
| 20260505112159 | 56 | 177 | 0.0 | 0.0 | 0.00 | 0.00 | 0.00 | 84 | 1019.0 |
| 20260505111433 | 56 | 177 | 0.0 | 0.0 | 0.00 | 0.00 | 0.00 | 83 | 1019.0 |
| 20260505110920 | 56 | 177 | 0.0 | 0.0 | 0.00 | 0.00 | 0.00 | 83 | 1019.1 |
| 20260505110355 | 56 | 177 | 0.0 | 0.0 | 0.00 | 0.00 | 0.00 | 83 | 1019.0 |
| 20260505102054 | 57 | 177 | 0.0 | 0.0 | 0.00 | 0.00 | 0.00 | 79 | 1018.5 |
| 20260505101309 | 58 | 177 | 0.0 | 0.0 | 0.00 | 0.00 | 0.00 | 79 | 1018.6 |
| 20260505100803 | 58 | 177 | 0.0 | 0.0 | 0.00 | 0.00 | 0.00 | 79 | 1018.6 |
| 20260505100257 | 58 | 177 | 0.0 | 0.0 | 0.00 | 0.00 | 0.00 | 79 | 1018.6 |
| 20260505095747 | 58 | 177 | 0.0 | 0.0 | 0.00 | 0.00 | 0.00 | 78 | 1018.5 |
| 20260505095238 | 58 | 177 | 0.0 | 0.0 | 0.00 | 0.00 | 0.00 | 78 | 1018.5 |
| 20260505094731 | 58 | 177 | 0.0 | 0.0 | 0.00 | 0.00 | 0.00 | 78 | 1018.3 |
| 20260505094233 | 58 | 177 | 0.0 | 0.0 | 0.00 | 0.00 | 0.00 | 79 | 1018.3 |
| 20260505093727 | 58 | 177 | 0.0 | 0.0 | 0.00 | 0.00 | 0.00 | 78 | 1018.2 |
| 20260505093226 | 58 | 177 | 0.0 | 0.0 | 0.00 | 0.00 | 0.00 | 78 | 1018.2 |
| 20260505092709 | 59 | 177 | 0.0 | 0.0 | 0.00 | 0.00 | 0.00 | 77 | 1018.0 |
| 20260505092200 | 59 | 177 | 0.0 | 0.0 | 0.00 | 0.00 | 0.00 | 77 | 1017.9 |
| 20260505091643 | 59 | 177 | 0.0 | 0.0 | 0.00 | 0.00 | 0.00 | 76 | 1017.9 |
| 20260505091137 | 59 | 177 | 0.0 | 0.0 | 0.00 | 0.00 | 0.00 | 75 | 1017.9 |
| 20260505090627 | 59 | 177 | 0.0 | 0.0 | 0.00 | 0.00 | 0.00 | 75 | 1017.8 |
| 20260505090126 | 60 | 177 | 0.0 | 0.0 | 0.00 | 0.00 | 0.00 | 74 | 1017.8 |
| 20260505085617 | 60 | 177 | 0.0 | 0.0 | 0.00 | 0.00 | 0.00 | 73 | 1017.7 |
| 20260505085100 | 60 | 177 | 0.0 | 0.0 | 0.00 | 0.00 | 0.00 | 72 | 1017.6 |
| 20260505084553 | 61 | 177 | 0.0 | 0.0 | 0.00 | 0.00 | 0.00 | 71 | 1017.7 |
| 20260505084315 | 61 | 177 | 0.0 | 0.0 | 0.00 | 0.00 | 0.00 | 72 | 1017.6 |
| 20260505083539 | 61 | 177 | 0.0 | 0.0 | 0.00 | 0.00 | 0.00 | 71 | 1017.6 |
| 20260505083038 | 62 | 177 | 0.0 | 0.0 | 0.00 | 0.00 | 0.00 | 70 | 1017.5 |
| 20260505082528 | 62 | 177 | 0.0 | 0.0 | 0.00 | 0.00 | 0.00 | 69 | 1017.4 |
| 20260505082024 | 63 | 210 | 0.0 | 1.0 | 0.00 | 0.00 | 0.00 | 68 | 1017.4 |
| 20260505081500 | 63 | 210 | 0.0 | 1.0 | 0.00 | 0.00 | 0.00 | 67 | 1017.3 |
| 20260505080940 | 63 | 204 | 0.0 | 0.0 | 0.00 | 0.00 | 0.00 | 66 | 1017.4 |
| 20260505080439 | 63 | 204 | 0.0 | 0.0 | 0.00 | 0.00 | 0.00 | 65 | 1017.3 |
| 20260505075938 | 64 | 204 | 0.0 | 0.0 | 0.00 | 0.00 | 0.00 | 65 | 1017.1 |
| 20260505075430 | 64 | 204 | 0.0 | 0.0 | 0.00 | 0.00 | 0.00 | 64 | 1017.0 |
| 20260505074929 | 64 | 204 | 0.0 | 0.0 | 0.00 | 0.00 | 0.00 | 63 | 1016.7 |
| 20260505074417 | 64 | 204 | 0.0 | 0.0 | 0.00 | 0.00 | 0.00 | 62 | 1016.6 |
| 20260505073900 | 64 | 204 | 0.0 | 1.0 | 0.00 | 0.00 | 0.00 | 61 | 1016.5 |
| 20260505073359 | 64 | 204 | 0.0 | 2.0 | 0.00 | 0.00 | 0.00 | 60 | 1016.5 |
| 20260505072901 | 65 | 204 | 0.0 | 2.0 | 0.00 | 0.00 | 0.00 | 60 | 1016.4 |
| 20260505072345 | 65 | 204 | 0.0 | 0.0 | 0.00 | 0.00 | 0.00 | 56 | 1016.3 |
| 20260505071845 | 66 | 204 | 0.0 | 0.0 | 0.00 | 0.00 | 0.00 | 53 | 1016.2 |
| 20260505071340 | 67 | 204 | 0.0 | 0.0 | 0.00 | 0.00 | 0.00 | 52 | 1016.1 |